NILESAT 201

Last updated on Jan. 15, 2021, 6:30 a.m. UTC

1 36830U 10037A   21014.85535821 -.00000065  00000-0  00000-0 0  9998
2 36830   0.0535 193.1017 0003284 114.2806 108.0511  1.00271135 38519
UTC
Height (km)
Latitude
Longitude
Inclination
Orbital Period
UTC large
Height (km)
Speed (km/s)
/
Latitude / Longitude
Inclination (degrees)
Orbital Period (minutes)
Azimuth
Elevation
Range (km)
Doppler Factor
iOS Compass Heading
iOS Angle

Next 30 passes for location: Hong Kong

Rise time Rise Azimuth (degrees) Set time Set Azimuth (degrees) Duration Max altitude (degrees)

No matching passes for this satellites